Date,TemperatureHighF,TemperatureAvgF,TemperatureLowF,DewpointHighF,DewpointAvgF,DewpointLowF,HumidityHigh,HumidityAvg,HumidityLow,PressureMaxIn,PressureMinIn,WindSpeedMaxMPH,WindSpeedAvgMPH,GustSpeedMaxMPH,PrecipitationSumIn
2013-3-1,73,56,42,52,47,40,95,76,44,30.39,30.20,8,1,12,0.00
2013-3-2,73,59,48,53,49,42,91,72,34,30.20,30.02,8,1,8,0.00
2013-3-3,65,56,50,51,49,45,90,78,51,30.08,30.00,13,1,13,0.00
2013-3-4,62,51,44,48,44,41,90,78,61,30.12,30.01,15,1,15,0.00
2013-3-5,57,50,44,45,42,40,90,75,56,30.04,29.85,22,5,22,0.21
2013-3-6,58,51,41,47,42,37,90,72,48,30.04,29.85,17,2,20,0.28
2013-3-7,60,48,38,45,40,34,93,75,38,29.97,29.81,14,1,14,0.41
2013-3-8,60,50,42,46,42,38,93,77,50,30.05,29.79,18,2,18,0.13
2013-3-9,66,52,40,44,40,37,91,68,35,30.28,30.05,15,2,15,0.00
2013-3-10,71,54,38,44,37,31,92,59,23,30.31,30.21,11,1,13,0.00
2013-3-11,74,55,39,45,40,36,91,62,28,30.23,30.08,13,1,13,0.00
2013-3-12,74,57,45,52,47,41,93,73,43,30.12,30.02,9,1,11,0.00
2013-3-13,78,60,46,55,50,44,95,72,39,30.13,30.02,12,1,12,0.00
2013-3-14,72,58,47,55,49,36,94,73,31,30.13,30.04,11,1,12,0.00
2013-3-15,71,56,43,52,46,40,91,71,38,30.11,30.02,10,1,10,0.00
2013-3-16,72,57,49,52,48,43,93,75,35,30.09,30.00,13,1,13,0.00
2013-3-17,68,54,42,47,42,36,91,68,32,30.12,30.01,12,2,15,0.00
2013-3-18,66,54,40,48,43,37,93,70,45,30.09,30.00,9,1,9,0.00
2013-3-19,72,56,44,51,44,38,90,67,36,30.11,30.01,12,1,13,0.05
2013-3-20,68,58,52,55,51,43,94,79,43,30.10,30.02,13,2,14,0.05
2013-3-21,65,54,43,49,43,38,87,68,43,30.10,29.97,14,2,15,0.00
2013-3-22,68,54,41,41,32,20,89,51,17,30.08,29.98,14,2,16,0.00
2013-3-23,69,55,40,45,32,21,77,47,17,30.09,30.00,12,2,14,0.00
2013-3-24,70,54,41,48,43,38,90,68,42,30.06,29.94,12,1,12,0.00
2013-3-25,60,52,43,48,44,40,90,77,61,29.99,29.92,13,1,13,0.00
2013-3-26,67,55,44,50,45,40,88,71,50,29.98,29.89,11,1,11,0.00
2013-3-27,69,57,46,54,49,43,91,75,55,29.98,29.92,11,1,13,0.00
2013-3-28,74,62,56,55,53,50,89,73,45,30.06,29.97,13,2,13,0.00
2013-3-29,79,64,55,55,53,51,89,70,38,30.05,29.96,11,1,13,0.00
2013-3-30,72,61,55,54,51,44,89,73,41,30.04,29.95,14,2,18,0.00
2013-3-31,68,60,53,54,51,48,93,75,49,30.03,29.97,13,3,17,0.06